This is the latest recevied weather packets stored in our database for station/object KT2UU-13. If no packets are shown the sender has not sent any weather packets the latest 10 day(s).
| Time | Temp. | Humidity | Pressure | Rain* | Wind** | Luminosity | Snow |
|---|---|---|---|---|---|---|---|
| 1778135791 | 17.22° C | 99% | 1013.1 hPa | 4.83 mm | - | - | - |
| 1778135487 | 17.22° C | 99% | 1012.5 hPa | 7.11 mm | - | - | - |
| 1778135184 | 17.22° C | 99% | 1012.9 hPa | 6.1 mm | - | - | - |
| 1778134882 | 17.22° C | 99% | 1013.5 hPa | 3.05 mm | - | - | - |
| 1778134579 | 17.22° C | 99% | 1013.4 hPa | 1.27 mm | - | - | - |
| 1778134277 | 17.22° C | 99% | 1013 hPa | 4.32 mm | - | - | - |
| 1778133975 | 17.22° C | 99% | 1013.6 hPa | 4.83 mm | - | - | - |
| 1778133671 | 17.22° C | 99% | 1013.7 hPa | 3.05 mm | - | - | - |
| 1778133367 | 17.22° C | 99% | 1013.4 hPa | 3.05 mm | - | - | - |
| 1778133063 | 17.22° C | 99% | 1013.1 hPa | 1.78 mm | - | - | - |
| 1778132759 | 17.22° C | 99% | 1013.4 hPa | 0 mm | - | - | - |
| 1778132456 | 17.22° C | 99% | 1013.4 hPa | 0 mm | - | - | - |
| 1778132154 | 17.22° C | 99% | 1013.5 hPa | 0 mm | - | - | - |
| 1778131853 | 17.22° C | 99% | 1014.2 hPa | 0 mm | - | - | - |
| 1778131550 | 17.22° C | 99% | 1013.9 hPa | 0 mm | - | - | - |
| 1778131246 | 17.22° C | 99% | 1014.2 hPa | 0 mm | - | - | - |
| 1778130944 | 17.22° C | 99% | 1014.1 hPa | 0 mm | - | - | - |
| 1778130641 | 17.22° C | 99% | 1014 hPa | 0 mm | - | - | - |
| 1778130337 | 17.22° C | 99% | 1013.5 hPa | 0 mm | - | - | - |
| 1778130034 | 17.22° C | 99% | 1014.5 hPa | 1.78 mm | - | - | - |
| 1778129731 | 17.22° C | 99% | 1014.1 hPa | 1.78 mm | - | - | - |
| 1778129428 | 17.22° C | 99% | 1014.2 hPa | 0 mm | - | - | - |
| 1778129124 | 17.22° C | 99% | 1014.2 hPa | 0 mm | - | - | - |
| 1778128821 | 17.22° C | 99% | 1014.1 hPa | 0 mm | - | - | - |
| 1778128517 | 17.22° C | 99% | 1014.1 hPa | 0 mm | - | - | - |
* Rain latest hour (hover to see other rain measurements)
** Current wind speed in m/s (hover to see current wind gust speed)